Satellite-Ground Cal/Val Site Overpasses Predictions

Prediction of Satellite NPP Overpassing Cal/Val Site: Antarctic Dome C

Ground Cal/Val Site Location: Latitude: -75.10, Longitude: 123.35; Satellite-Ground Site NADIR distance within 100 km.

Table of predicted overpasses for the next 14.0 days since TLE Epoch: 2/6/2012
Interval Starting Time Ending Time Minimum Distance Time Minimum Distance (km)
1 02/06/2012 15:00:25 02/06/2012 15:00:50 02/06/2012 15:00:38 54.71
2 02/07/2012 14:41:37 02/07/2012 14:42:01 02/07/2012 14:41:49 54.31
3 02/08/2012 07:43:17 02/08/2012 07:43:37 02/08/2012 07:43:27 72.86
4 02/09/2012 07:24:25 02/09/2012 07:24:52 02/09/2012 07:24:39 35.03
5 02/11/2012 15:06:51 02/11/2012 15:07:01 02/11/2012 15:06:56 92.91
6 02/12/2012 14:47:52 02/12/2012 14:48:20 02/12/2012 14:48:06 18.21
7 02/14/2012 07:30:41 02/14/2012 07:31:10 02/14/2012 07:30:56 2.40
8 02/17/2012 14:54:09 02/17/2012 14:54:38 02/17/2012 14:54:24 18.74
9 02/18/2012 14:35:27 02/18/2012 14:35:41 02/18/2012 14:35:34 88.31
10 02/19/2012 07:37:00 02/19/2012 07:37:27 02/19/2012 07:37:
